Weather History for Big Piney, WY

Change the Weather History Date:

Sunday, August 18, 2013

  Actual Average Record
Temperature  
Mean Temperature 67 °F 60 °F  
Max Temperature 87 °F 79 °F 87 °F (2013)
Min Temperature 47 °F 40 °F 26 °F (1987)
Degree Days  
Heating Degree Days 0 6  
Month to date heating degree days 53 77  
Since 1 June heating degree days 294 499  
Since 1 July heating degree days 77 194  
Cooling Degree Days 2 0  
Month to date cooling degree days 2 12  
Year to date cooling degree days 79 36  
Since 1 June cooling degree days 79 36  
Growing Degree Days 17 (Base 50)    
Moisture  
Dew Point 34 °F    
Average Humidity 37    
Maximum Humidity 61    
Minimum Humidity 13    
Precipitation  
Precipitation T in 0.03 in 0.49 in (2004)
Month to date precipitation 0.05 0.42  
Year to date precipitation 2.64 4.39  
Sea Level Pressure  
Sea Level Pressure 29.99 in    
Wind  
Wind Speed 7 mph (NNW)    
Max Wind Speed 17 mph    
Max Gust Speed 25 mph    
Visibility 10 miles    
Events Thunderstorm    
T = Trace of Precipitation, MM = Missing Value Source: NWS Daily Summary

Daily Weather History Graph

Daily Weather History Graph

Search for Another Location

Airport:

Trip Planner

Search our weather history database for the weather conditions in past years. The results will help you decide how hot, cold, wet, or windy it might be!

Date:

Astronomy

Aug. 18, 2013 Rise Set
Actual Time 6:30 AM MDT 8:16 PM MDT
Civil Twilight 6:00 AM MDT 8:46 PM MDT
Nautical Twilight 5:23 AM MDT 9:23 PM MDT
Astronomical Twilight 4:44 AM MDT 10:02 PM MDT
Moon 6:26 PM MDT (8/18) 3:42 AM MDT (8/18)
Length of Visible Light 14h 46m
Length of Day
13h 46m
Waxing Gibbous, 92% of the Moon is Illuminated
Aug 18
Waxing Gibbous
Aug 20
Full
Aug 28
Last Quarter
Sep 5
New
Sep 12
First Quarter

Hourly Weather History & Observations

Time (MDT) Temp. Dew Point Humidity Pressure Visibility Wind Dir Wind Speed Gust Speed Precip Events Conditions
12:53 AM 63.0 °F 39.0 °F 41% 29.93 in 10.0 mi North 8.1 mph - N/A   Clear
1:53 AM 55.9 °F 37.0 °F 49% 29.94 in 10.0 mi NW 3.5 mph - N/A   Clear
2:53 AM 52.0 °F 37.0 °F 57% 29.95 in 10.0 mi NW 3.5 mph - N/A   Clear
3:53 AM 55.9 °F 36.0 °F 47% 29.94 in 10.0 mi North 10.4 mph - N/A   Clear
4:53 AM 48.0 °F 35.1 °F 61% 29.97 in 10.0 mi Calm Calm - N/A   Clear
5:53 AM 48.0 °F 34.0 °F 58% 29.98 in 10.0 mi ENE 4.6 mph - N/A   Clear
6:53 AM 48.0 °F 33.1 °F 56% 30.03 in 10.0 mi East 3.5 mph - N/A   Clear
7:53 AM 55.0 °F 35.1 °F 47% 30.03 in 10.0 mi East 3.5 mph - N/A   Clear
8:53 AM 64.0 °F 35.1 °F 34% 30.02 in 10.0 mi Calm Calm - N/A   Clear
9:53 AM 69.1 °F 39.0 °F 33% 30.01 in 10.0 mi Calm Calm - N/A   Clear
10:53 AM 75.0 °F 35.1 °F 23% 29.99 in 10.0 mi South 4.6 mph - N/A   Clear
11:53 AM 79.0 °F 36.0 °F 21% 29.98 in 10.0 mi Variable 5.8 mph - N/A   Clear
12:53 PM 80.1 °F 34.0 °F 19% 29.98 in 10.0 mi Calm Calm - N/A   Clear
1:42 PM 80.6 °F 35.6 °F 20% 30.30 in 10.0 mi Variable 3.5 mph - N/A Thunderstorm Clear
1:53 PM 82.9 °F 36.0 °F 19% 29.98 in 10.0 mi SSW 6.9 mph - N/A   Partly Cloudy
2:53 PM 84.9 °F 34.0 °F 16% 29.96 in 10.0 mi Variable 6.9 mph - 0.00 in   Partly Cloudy
3:53 PM 84.0 °F 36.0 °F 18% 29.94 in 10.0 mi WSW 6.9 mph - N/A   Mostly Cloudy
4:53 PM 84.9 °F 33.1 °F 16% 29.95 in 10.0 mi South 6.9 mph - N/A   Partly Cloudy
5:53 PM 86.0 °F 30.0 °F 13% 29.94 in 10.0 mi NW 16.1 mph 20.7 mph N/A   Partly Cloudy
6:53 PM 82.9 °F 28.9 °F 14% 29.94 in 10.0 mi NW 13.8 mph - N/A   Clear
7:53 PM 75.0 °F 34.0 °F 22% 29.95 in 10.0 mi NW 8.1 mph - N/A   Clear
8:53 PM 68.0 °F 30.9 °F 25% 29.97 in 10.0 mi NNW 10.4 mph - N/A   Clear
9:53 PM 64.0 °F 30.0 °F 28% 29.98 in 10.0 mi NNW 11.5 mph - N/A   Clear
10:53 PM 60.1 °F 30.0 °F 32% 29.99 in 10.0 mi NNW 11.5 mph - N/A   Clear
11:53 PM 57.0 °F 32.0 °F 39% 29.99 in 10.0 mi NNW 12.7 mph - N/A   Clear